,,PA_Meas_PMT16A,,PR_Meas_QMR101_102,,RH_Meas_QMH101,,SR_Meas_QMS101,,TA_Meas_QMH101,,GenWind,,GenWind,
time,status,PA,status,PR,status,RH,status,SR,status,TA,status,DirAvg,status,SpdAvg,
2012-10-19, 00:00:05,VALID,918.276,VALID,0,VALID,97.4806,VALID,0,VALID,19.4132,VALID,161,VALID,0,
2012-10-19, 00:01:05,VALID,918.268,VALID,0,VALID,97.4882,VALID,0,VALID,19.4327,VALID,158,VALID,0,
2012-10-19, 00:02:05,VALID,918.249,VALID,0,VALID,97.5035,VALID,0,VALID,19.4132,VALID,158,VALID,0,
2012-10-19, 00:03:05,VALID,918.206,VALID,0,VALID,97.473,VALID,0,VALID,19.4313,VALID,158,VALID,0,
2012-10-19, 00:04:05,VALID,918.215,VALID,0,VALID,97.4959,VALID,0,VALID,19.4118,VALID,158,VALID,0,
2012-10-19, 00:05:05,VALID,918.175,VALID,0,VALID,97.5035,VALID,0,VALID,19.4327,VALID,158,VALID,0,
2012-10-19, 00:06:05,VALID,918.168,VALID,0,VALID,97.4959,VALID,0,VALID,19.4523,VALID,158,VALID,0,
2012-10-19, 00:07:05,VALID,918.174,VALID,0,VALID,97.5111,VALID,0,VALID,19.4327,VALID,158,VALID,0,
2012-10-19, 00:08:05,VALID,918.176,VALID,0,VALID,97.4577,VALID,0,VALID,19.4537,VALID,158,VALID,0,
2012-10-19, 00:09:05,VALID,918.157,VALID,0,VALID,97.4959,VALID,0,VALID,19.4523,VALID,158,VALID,0,
2012-10-19, 00:10:05,VALID,918.164,VALID,0,VALID,97.4959,VALID,0,VALID,19.4523,VALID,158,VALID,0,
2012-10-19, 00:11:05,VALID,918.187,VALID,0,VALID,97.4959,VALID,0,VALID,19.4523,VALID,158,VALID,0,
2012-10-19, 00:12:05,VALID,918.15,VALID,0,VALID,97.4882,VALID,0,VALID,19.4508,VALID,158,VALID,0,
2012-10-19, 00:13:05,VALID,918.141,VALID,0,VALID,97.5035,VALID,0,VALID,19.4718,VALID,158,VALID,0,
2012-10-19, 00:14:05,VALID,918.151,VALID,0,VALID,97.5111,VALID,0,VALID,19.4703,VALID,158,VALID,0,
2012-10-19, 00:15:05,VALID,918.119,VALID,0,VALID,97.5035,VALID,0,VALID,19.5108,VALID,158,VALID,0,
2012-10-19, 00:16:05,VALID,918.117,VALID,0.2,VALID,97.473,VALID,0,VALID,19.4913,VALID,158,VALID,0,
2012-10-19, 00:17:05,VALID,918.146,VALID,0,VALID,97.4806,VALID,0,VALID,19.4718,VALID,158,VALID,0,
2012-10-19, 00:18:05,VALID,918.133,VALID,0,VALID,97.5035,VALID,0,VALID,19.4718,VALID,158,VALID,0,
2012-10-19, 00:19:05,VALID,918.115,VALID,0,VALID,97.4882,VALID,0,VALID,19.4523,VALID,158,VALID,0,
2012-10-19, 00:20:05,VALID,918.117,VALID,0,VALID,97.4806,VALID,0,VALID,19.4327,VALID,158,VALID,0,
2012-10-19, 00:21:05,VALID,918.096,VALID,0,VALID,97.5111,VALID,0,VALID,19.4132,VALID,158,VALID,0,
2012-10-19, 00:22:05,VALID,918.087,VALID,0,VALID,97.5035,VALID,0,VALID,19.4132,VALID,158,VALID,0,
2012-10-19, 00:23:05,VALID,918.093,VALID,0,VALID,97.5111,VALID,0,VALID,19.3937,VALID,158,VALID,0,
2012-10-19, 00:24:05,VALID,918.1,VALID,0,VALID,97.5035,VALID,0,VALID,19.3742,VALID,158,VALID,0,
2012-10-19, 00:25:05,VALID,918.06,VALID,0,VALID,97.5111,VALID,0,VALID,19.3742,VALID,158,VALID,0,
2012-10-19, 00:26:05,VALID,918.063,VALID,0,VALID,97.4882,VALID,0,VALID,19.3547,VALID,158,VALID,0,
2012-10-19, 00:27:05,VALID,918.054,VALID,0,VALID,97.4882,VALID,0,VALID,19.3742,VALID,158,VALID,0,
2012-10-19, 00:28:05,VALID,918.076,VALID,0,VALID,97.5035,VALID,0,VALID,19.4147,VALID,158,VALID,0,
2012-10-19, 00:29:05,VALID,918.057,VALID,0,VALID,97.5035,VALID,0,VALID,19.3937,VALID,158,VALID,0,
2012-10-19, 00:30:05,VALID,918.018,VALID,0,VALID,97.5187,VALID,0,VALID,19.3937,VALID,158,VALID,0,
2012-10-19, 00:31:05,VALID,918.027,VALID,0,VALID,97.5035,VALID,0,VALID,19.4118,VALID,158,VALID,0,
2012-10-19, 00:32:05,VALID,918.007,VALID,0.2,VALID,97.5035,VALID,0,VALID,19.3937,VALID,158,VALID,0,
2012-10-19, 00:33:05,VALID,918.025,VALID,0,VALID,97.5187,VALID,0,VALID,19.4132,VALID,158,VALID,0,
2012-10-19, 00:34:05,VALID,917.995,VALID,0,VALID,97.5111,VALID,0,VALID,19.3937,VALID,158,VALID,0,
2012-10-19, 00:35:05,VALID,917.955,VALID,0,VALID,97.5035,VALID,0,VALID,19.4132,VALID,158,VALID,0,
2012-10-19, 00:36:05,VALID,917.98,VALID,0,VALID,97.534,VALID,0,VALID,19.4118,VALID,158,VALID,0,
2012-10-19, 00:37:05,VALID,917.95,VALID,0,VALID,97.5187,VALID,0,VALID,19.4327,VALID,158,VALID,0,
2012-10-19, 00:38:05,VALID,917.917,VALID,0,VALID,97.5492,VALID,0,VALID,19.4327,VALID,158,VALID,0,
2012-10-19, 00:39:05,VALID,917.93,VALID,0,VALID,97.5264,VALID,0,VALID,19.4523,VALID,158,VALID,0,
2012-10-19, 00:40:05,VALID,917.9,VALID,0,VALID,97.5264,VALID,0,VALID,19.4327,VALID,158,VALID,0,
2012-10-19, 00:41:05,VALID,917.89,VALID,0,VALID,97.4959,VALID,0,VALID,19.4523,VALID,158,VALID,0,
2012-10-19, 00:42:05,VALID,917.883,VALID,0,VALID,97.4959,VALID,0,VALID,19.4913,VALID,158,VALID,0,
2012-10-19, 00:43:05,VALID,917.868,VALID,0,VALID,97.5187,VALID,0,VALID,19.5108,VALID,158,VALID,0,
2012-10-19, 00:44:05,VALID,917.838,VALID,0,VALID,97.5187,VALID,0,VALID,19.5108,VALID,158,VALID,0,
2012-10-19, 00:45:05,VALID,917.853,VALID,0,VALID,97.534,VALID,0,VALID,19.5108,VALID,158,VALID,0,
2012-10-19, 00:46:05,VALID,917.821,VALID,0,VALID,97.5264,VALID,0,VALID,19.5108,VALID,158,VALID,0,
2012-10-19, 00:47:05,VALID,917.833,VALID,0,VALID,97.5264,VALID,0,VALID,19.5108,VALID,158,VALID,0,
2012-10-19, 00:48:05,VALID,917.826,VALID,0,VALID,97.5035,VALID,0,VALID,19.5108,VALID,158,VALID,0,
2012-10-19, 00:49:05,VALID,917.839,VALID,0.2,VALID,97.5187,VALID,0,VALID,19.4913,VALID,158,VALID,0,
2012-10-19, 00:50:05,VALID,917.822,VALID,0,VALID,97.5187,VALID,0,VALID,19.4718,VALID,158,VALID,0,
2012-10-19, 00:51:05,VALID,917.829,VALID,0,VALID,97.5187,VALID,0,VALID,19.4718,VALID,158,VALID,0,
2012-10-19, 00:52:05,VALID,917.834,VALID,0,VALID,97.5111,VALID,0,VALID,19.4327,VALID,158,VALID,0,
2012-10-19, 00:53:05,VALID,917.805,VALID,0,VALID,97.5187,VALID,0,VALID,19.4132,VALID,158,VALID,0,
2012-10-19, 00:54:05,VALID,917.821,VALID,0,VALID,97.5111,VALID,0,VALID,19.4523,VALID,158,VALID,0,
2012-10-19, 00:55:05,VALID,917.804,VALID,0,VALID,97.534,VALID,0,VALID,19.4132,VALID,158,VALID,0,
2012-10-19, 00:56:05,VALID,917.791,VALID,0,VALID,97.4959,VALID,0,VALID,19.4523,VALID,158,VALID,0,
2012-10-19, 00:57:05,VALID,917.795,VALID,0,VALID,97.5264,VALID,0,VALID,19.4523,VALID,158,VALID,0,
2012-10-19, 00:58:05,VALID,917.761,VALID,0,VALID,97.5264,VALID,0,VALID,19.4523,VALID,158,VALID,0,
2012-10-19, 00:59:05,VALID,917.742,VALID,0,VALID,97.5035,VALID,0,VALID,19.4718,VALID,158,VALID,0,
2012-10-19, 01:00:05,VALID,917.741,VALID,0,VALID,97.534,VALID,0,VALID,19.4718,VALID,158,VALID,0,
2012-10-19, 01:01:05,VALID,917.704,VALID,0,VALID,97.5111,VALID,0,VALID,19.4718,VALID,158,VALID,0,
2012-10-19, 01:02:05,VALID,917.706,VALID,0,VALID,97.5111,VALID,0,VALID,19.4718,VALID,158,VALID,0,
2012-10-19, 01:03:05,VALID,917.68,VALID,0,VALID,97.5187,VALID,0,VALID,19.4523,VALID,158,VALID,0,
2012-10-19, 01:04:05,VALID,917.689,VALID,0,VALID,97.5187,VALID,0,VALID,19.4327,VALID,158,VALID,0,
2012-10-19, 01:05:05,VALID,917.658,VALID,0,VALID,97.5035,VALID,0,VALID,19.4327,VALID,158,VALID,0,
2012-10-19, 01:06:05,VALID,917.664,VALID,0,VALID,97.5187,VALID,0,VALID,19.4327,VALID,158,VALID,0,
2012-10-19, 01:07:05,VALID,917.635,VALID,0,VALID,97.5111,VALID,0,VALID,19.4118,VALID,158,VALID,0,
2012-10-19, 01:08:05,VALID,917.612,VALID,0,VALID,97.5264,VALID,0,VALID,19.4132,VALID,158,VALID,0,
2012-10-19, 01:09:05,VALID,917.607,VALID,0,VALID,97.5187,VALID,0,VALID,19.3923,VALID,158,VALID,0,
2012-10-19, 01:10:05,VALID,917.58,VALID,0,VALID,97.5187,VALID,0,VALID,19.4327,VALID,158,VALID,0,
2012-10-19, 01:11:05,VALID,917.548,VALID,0,VALID,97.534,VALID,0,VALID,19.4118,VALID,158,VALID,0,
2012-10-19, 01:12:05,VALID,917.534,VALID,0,VALID,97.5264,VALID,0,VALID,19.4132,VALID,158,VALID,0,
2012-10-19, 01:13:05,VALID,917.531,VALID,0,VALID,97.534,VALID,0,VALID,19.4313,VALID,158,VALID,0,
2012-10-19, 01:14:05,VALID,917.531,VALID,0,VALID,97.534,VALID,0,VALID,19.4132,VALID,158,VALID,0,
2012-10-19, 01:15:05,VALID,917.516,VALID,0,VALID,97.5264,VALID,0,VALID,19.3923,VALID,158,VALID,0,
2012-10-19, 01:16:05,VALID,917.489,VALID,0,VALID,97.534,VALID,0,VALID,19.4132,VALID,158,VALID,0,
2012-10-19, 01:17:05,VALID,917.442,VALID,0,VALID,97.5187,VALID,0.107441,VALID,19.3937,VALID,158,VALID,0,
2012-10-19, 01:18:05,VALID,917.443,VALID,0,VALID,97.534,VALID,0,VALID,19.3937,VALID,158,VALID,0,
2012-10-19, 01:19:05,VALID,917.404,VALID,0,VALID,97.534,VALID,0,VALID,19.3533,VALID,158,VALID,0,
2012-10-19, 01:20:05,VALID,917.397,VALID,0,VALID,97.5264,VALID,0,VALID,19.3728,VALID,158,VALID,0,
2012-10-19, 01:21:05,VALID,917.384,VALID,0,VALID,97.5416,VALID,0,VALID,19.3533,VALID,158,VALID,0,
2012-10-19, 01:22:05,VALID,917.365,VALID,0,VALID,97.5416,VALID,0,VALID,19.3338,VALID,158,VALID,0,
2012-10-19, 01:23:05,VALID,917.373,VALID,0,VALID,97.5187,VALID,0,VALID,19.3338,VALID,158,VALID,0,
2012-10-19, 01:24:05,VALID,917.328,VALID,0,VALID,97.5569,VALID,0,VALID,19.3338,VALID,158,VALID,0,
2012-10-19, 01:25:05,VALID,917.335,VALID,0,VALID,97.5492,VALID,0,VALID,19.3143,VALID,158,VALID,0,
2012-10-19, 01:26:05,VALID,917.273,VALID,0,VALID,97.534,VALID,0,VALID,19.3338,VALID,158,VALID,0,
2012-10-19, 01:27:05,VALID,917.256,VALID,0,VALID,97.5569,VALID,0.107441,VALID,19.3533,VALID,158,VALID,0,
2012-10-19, 01:28:05,VALID,917.258,VALID,0,VALID,97.5645,VALID,0,VALID,19.3533,VALID,158,VALID,0,
2012-10-19, 01:29:05,VALID,917.234,VALID,0,VALID,97.534,VALID,0,VALID,19.3352,VALID,158,VALID,0,
2012-10-19, 01:30:05,VALID,917.258,VALID,0,VALID,97.5569,VALID,0,VALID,19.3157,VALID,158,VALID,0,
2012-10-19, 01:31:05,VALID,917.235,VALID,0,VALID,97.5721,VALID,0,VALID,19.2572,VALID,158,VALID,0,
2012-10-19, 01:32:05,VALID,917.222,VALID,0,VALID,97.5645,VALID,0,VALID,19.2168,VALID,158,VALID,0,
2012-10-19, 01:33:05,VALID,917.204,VALID,0,VALID,97.5416,VALID,0,VALID,19.2377,VALID,158,VALID,0,
2012-10-19, 01:34:05,VALID,917.168,VALID,0,VALID,97.5416,VALID,0,VALID,19.1778,VALID,158,VALID,0,
2012-10-19, 01:35:05,VALID,917.184,VALID,0,VALID,97.5492,VALID,0,VALID,19.1987,VALID,158,VALID,0,
2012-10-19, 01:36:05,VALID,917.173,VALID,0,VALID,97.5645,VALID,0,VALID,19.1597,VALID,158,VALID,0,
2012-10-19, 01:37:05,VALID,917.142,VALID,0,VALID,97.5645,VALID,0,VALID,19.1597,VALID,158,VALID,0,
2012-10-19, 01:38:05,VALID,917.143,VALID,0,VALID,97.5645,VALID,0,VALID,19.1792,VALID,158,VALID,0,
2012-10-19, 01:39:05,VALID,917.116,VALID,0,VALID,97.5873,VALID,0,VALID,19.1388,VALID,158,VALID,0,
2012-10-19, 01:40:05,VALID,917.098,VALID,0,VALID,97.5721,VALID,0,VALID,19.1402,VALID,158,VALID,0,
2012-10-19, 01:41:05,VALID,917.096,VALID,0,VALID,97.5645,VALID,0,VALID,19.1597,VALID,158,VALID,0,
2012-10-19, 01:42:05,VALID,917.075,VALID,0,VALID,97.5721,VALID,0,VALID,19.1597,VALID,158,VALID,0,
2012-10-19, 01:43:05,VALID,917.058,VALID,0,VALID,97.5645,VALID,0,VALID,19.1597,VALID,158,VALID,0,
2012-10-19, 01:44:05,VALID,917.037,VALID,0,VALID,97.5645,VALID,0,VALID,19.1597,VALID,158,VALID,0,
2012-10-19, 01:45:05,VALID,917.044,VALID,0,VALID,97.5873,VALID,0,VALID,19.1792,VALID,158,VALID,0,
2012-10-19, 01:46:05,VALID,917.006,VALID,0,VALID,97.5873,VALID,0,VALID,19.1987,VALID,158,VALID,0,
2012-10-19, 01:47:05,VALID,916.983,VALID,0,VALID,97.5721,VALID,0,VALID,19.2182,VALID,158,VALID,0,
2012-10-19, 01:48:05,VALID,916.965,VALID,0,VALID,97.5797,VALID,0,VALID,19.2558,VALID,158,VALID,0,
2012-10-19, 01:49:05,VALID,916.942,VALID,0,VALID,97.5797,VALID,0,VALID,19.2962,VALID,158,VALID,0,
2012-10-19, 01:50:05,VALID,916.936,VALID,0,VALID,97.5797,VALID,0,VALID,19.2962,VALID,158,VALID,0,
2012-10-19, 01:51:05,VALID,916.896,VALID,0,VALID,97.5873,VALID,0,VALID,19.2948,VALID,158,VALID,0,
2012-10-19, 01:52:05,VALID,916.9,VALID,0,VALID,97.5873,VALID,0,VALID,19.3157,VALID,158,VALID,0,
2012-10-19, 01:53:05,VALID,916.912,VALID,0,VALID,97.6026,VALID,0,VALID,19.3143,VALID,158,VALID,0,
2012-10-19, 01:54:05,VALID,916.877,VALID,0,VALID,97.595,VALID,0,VALID,19.3157,VALID,158,VALID,0,
2012-10-19, 01:55:05,VALID,916.861,VALID,0,VALID,97.5873,VALID,0,VALID,19.3157,VALID,158,VALID,0,
2012-10-19, 01:56:05,VALID,916.869,VALID,0,VALID,97.5873,VALID,0,VALID,19.2962,VALID,158,VALID,0,
2012-10-19, 01:57:05,VALID,916.837,VALID,0,VALID,97.6026,VALID,0,VALID,19.2962,VALID,158,VALID,0,
2012-10-19, 01:58:05,VALID,916.864,VALID,0,VALID,97.6102,VALID,0,VALID,19.3157,VALID,158,VALID,0,
2012-10-19, 01:59:05,VALID,916.829,VALID,0,VALID,97.5873,VALID,0,VALID,19.2962,VALID,158,VALID,0,
2012-10-19, 02:00:05,VALID,916.812,VALID,0,VALID,97.5873,VALID,0,VALID,19.2962,VALID,158,VALID,0,
2012-10-19, 02:01:05,VALID,916.814,VALID,0,VALID,97.6026,VALID,0,VALID,19.2962,VALID,158,VALID,0,
2012-10-19, 02:02:05,VALID,916.777,VALID,0,VALID,97.5873,VALID,0,VALID,19.2767,VALID,158,VALID,0,
2012-10-19, 02:03:05,VALID,916.777,VALID,0,VALID,97.6102,VALID,0,VALID,19.2572,VALID,158,VALID,0,
2012-10-19, 02:04:05,VALID,916.766,VALID,0,VALID,97.6026,VALID,0,VALID,19.2182,VALID,158,VALID,0,
2012-10-19, 02:05:05,VALID,916.762,VALID,0,VALID,97.6026,VALID,0,VALID,19.2182,VALID,158,VALID,0,
2012-10-19, 02:06:05,VALID,916.732,VALID,0,VALID,97.595,VALID,0,VALID,19.1792,VALID,158,VALID,0,
2012-10-19, 02:07:05,VALID,916.718,VALID,0,VALID,97.6178,VALID,0,VALID,19.1792,VALID,158,VALID,0,
2012-10-19, 02:08:05,VALID,916.691,VALID,0,VALID,97.6178,VALID,0,VALID,19.1597,VALID,158,VALID,0,
2012-10-19, 02:09:04,VALID,916.696,VALID,0,VALID,97.6026,VALID,0,VALID,19.1193,VALID,158,VALID,0,
2012-10-19, 02:10:04,VALID,916.706,VALID,0,VALID,97.595,VALID,0,VALID,19.1417,VALID,158,VALID,0,
2012-10-19, 02:11:04,VALID,916.717,VALID,0,VALID,97.6102,VALID,0,VALID,19.1402,VALID,158,VALID,0,
2012-10-19, 02:12:04,VALID,916.691,VALID,0,VALID,97.6178,VALID,0,VALID,19.1207,VALID,158,VALID,0,
2012-10-19, 02:13:04,VALID,916.707,VALID,0,VALID,97.6178,VALID,0,VALID,19.1402,VALID,158,VALID,0,
2012-10-19, 02:14:04,VALID,916.691,VALID,0,VALID,97.6102,VALID,0,VALID,19.1012,VALID,158,VALID,0,
2012-10-19, 02:15:04,VALID,916.691,VALID,0,VALID,97.6178,VALID,0,VALID,19.1012,VALID,158,VALID,0,
2012-10-19, 02:16:04,VALID,916.658,VALID,0,VALID,97.6102,VALID,0,VALID,19.0622,VALID,158,VALID,0,
2012-10-19, 02:17:04,VALID,916.642,VALID,0,VALID,97.6102,VALID,0,VALID,19.1012,VALID,158,VALID,0,
2012-10-19, 02:18:04,VALID,916.622,VALID,0,VALID,97.6255,VALID,0,VALID,19.1012,VALID,158,VALID,0,
2012-10-19, 02:19:04,VALID,916.614,VALID,0,VALID,97.6102,VALID,0,VALID,19.1012,VALID,158,VALID,0,
2012-10-19, 02:20:04,VALID,916.611,VALID,0,VALID,97.6178,VALID,0,VALID,19.1012,VALID,158,VALID,0,
2012-10-19, 02:21:04,VALID,916.586,VALID,0,VALID,97.6178,VALID,0,VALID,19.1222,VALID,158,VALID,0,
2012-10-19, 02:22:04,VALID,916.562,VALID,0,VALID,97.6331,VALID,0,VALID,19.1012,VALID,158,VALID,0,
2012-10-19, 02:23:04,VALID,916.549,VALID,0,VALID,97.656,VALID,0,VALID,19.1207,VALID,158,VALID,0,
2012-10-19, 02:24:04,VALID,916.577,VALID,0,VALID,97.6331,VALID,0,VALID,19.1207,VALID,158,VALID,0,
2012-10-19, 02:25:04,VALID,916.548,VALID,0,VALID,97.6331,VALID,0,VALID,19.1207,VALID,158,VALID,0,
2012-10-19, 02:26:04,VALID,916.525,VALID,0,VALID,97.6331,VALID,0,VALID,19.1207,VALID,158,VALID,0,
2012-10-19, 02:27:04,VALID,916.505,VALID,0,VALID,97.6331,VALID,0,VALID,19.1012,VALID,158,VALID,0,
2012-10-19, 02:28:04,VALID,916.495,VALID,0,VALID,97.6331,VALID,0,VALID,19.1012,VALID,158,VALID,0,
2012-10-19, 02:29:04,VALID,916.525,VALID,0,VALID,97.6407,VALID,0,VALID,19.1012,VALID,158,VALID,0,
2012-10-19, 02:30:04,VALID,916.512,VALID,0,VALID,97.6255,VALID,0,VALID,19.0817,VALID,158,VALID,0,
2012-10-19, 02:31:04,VALID,916.497,VALID,0,VALID,97.6407,VALID,0,VALID,19.0622,VALID,158,VALID,0,
2012-10-19, 02:32:04,VALID,916.487,VALID,0,VALID,97.6255,VALID,0,VALID,19.0427,VALID,158,VALID,0,
2012-10-19, 02:33:04,VALID,916.517,VALID,0,VALID,97.6407,VALID,0,VALID,19.0427,VALID,158,VALID,0,
2012-10-19, 02:34:04,VALID,916.479,VALID,0,VALID,97.6407,VALID,0,VALID,19.0427,VALID,158,VALID,0,
2012-10-19, 02:35:04,VALID,916.476,VALID,0,VALID,97.6331,VALID,0,VALID,19.0442,VALID,158,VALID,0,
2012-10-19, 02:36:04,VALID,916.472,VALID,0,VALID,97.6255,VALID,0,VALID,19.0637,VALID,158,VALID,0,
2012-10-19, 02:37:04,VALID,916.488,VALID,0,VALID,97.656,VALID,0,VALID,19.0232,VALID,158,VALID,0,
2012-10-19, 02:38:04,VALID,916.451,VALID,0,VALID,97.6483,VALID,0,VALID,19.0232,VALID,158,VALID,0,
2012-10-19, 02:39:04,VALID,916.455,VALID,0,VALID,97.656,VALID,0,VALID,19.0232,VALID,158,VALID,0,
2012-10-19, 02:40:04,VALID,916.44,VALID,0,VALID,97.6331,VALID,0,VALID,19.0427,VALID,158,VALID,0,
2012-10-19, 02:41:04,VALID,916.438,VALID,0,VALID,97.6255,VALID,0,VALID,19.0427,VALID,158,VALID,0,
2012-10-19, 02:42:04,VALID,916.437,VALID,0,VALID,97.6331,VALID,0,VALID,19.0427,VALID,158,VALID,0,
2012-10-19, 02:43:04,VALID,916.459,VALID,0,VALID,97.6636,VALID,0,VALID,19.0427,VALID,158,VALID,0,
2012-10-19, 02:44:04,VALID,916.463,VALID,0,VALID,97.6331,VALID,0,VALID,19.0232,VALID,158,VALID,0,
2012-10-19, 02:45:04,VALID,916.449,VALID,0,VALID,97.6407,VALID,0,VALID,19.0232,VALID,158,VALID,0,
2012-10-19, 02:46:04,VALID,916.457,VALID,0,VALID,97.6407,VALID,0,VALID,19.0637,VALID,158,VALID,0,
2012-10-19, 02:47:04,VALID,916.413,VALID,0,VALID,97.6636,VALID,0,VALID,19.0427,VALID,158,VALID,0,
2012-10-19, 02:48:04,VALID,916.439,VALID,0,VALID,97.6483,VALID,0,VALID,19.0637,VALID,158,VALID,0,
2012-10-19, 02:49:04,VALID,916.416,VALID,0,VALID,97.6483,VALID,0,VALID,19.0427,VALID,158,VALID,0,
2012-10-19, 02:50:04,VALID,916.434,VALID,0,VALID,97.6483,VALID,0,VALID,19.0427,VALID,158,VALID,0,
2012-10-19, 02:51:04,VALID,916.428,VALID,0,VALID,97.656,VALID,0,VALID,19.0622,VALID,158,VALID,0,
2012-10-19, 02:52:04,VALID,916.422,VALID,0,VALID,97.6331,VALID,0,VALID,19.0427,VALID,158,VALID,0,
2012-10-19, 02:53:04,VALID,916.427,VALID,0,VALID,97.656,VALID,0,VALID,19.0817,VALID,158,VALID,0,
2012-10-19, 02:54:04,VALID,916.417,VALID,0,VALID,97.6636,VALID,0,VALID,19.0622,VALID,158,VALID,0,
2012-10-19, 02:55:04,VALID,916.422,VALID,0,VALID,97.656,VALID,0,VALID,19.0622,VALID,158,VALID,0,
2012-10-19, 02:56:04,VALID,916.411,VALID,0,VALID,97.656,VALID,0,VALID,19.0622,VALID,158,VALID,0,
2012-10-19, 02:57:04,VALID,916.404,VALID,0,VALID,97.6483,VALID,0,VALID,19.1027,VALID,158,VALID,0,
2012-10-19, 02:58:04,VALID,916.436,VALID,0,VALID,97.6407,VALID,0,VALID,19.1402,VALID,158,VALID,0,
2012-10-19, 02:59:04,VALID,916.418,VALID,0,VALID,97.6636,VALID,0,VALID,19.1402,VALID,158,VALID,0,
2012-10-19, 03:00:04,VALID,916.415,VALID,0,VALID,97.6636,VALID,0,VALID,19.1597,VALID,158,VALID,0,
2012-10-19, 03:01:04,VALID,916.427,VALID,0,VALID,97.6636,VALID,0,VALID,19.2002,VALID,158,VALID,0,
2012-10-19, 03:02:04,VALID,916.427,VALID,0,VALID,97.6483,VALID,0,VALID,19.1987,VALID,158,VALID,0,
2012-10-19, 03:03:04,VALID,916.425,VALID,0,VALID,97.6712,VALID,0,VALID,19.1987,VALID,158,VALID,0,
2012-10-19, 03:04:04,VALID,916.426,VALID,0,VALID,97.656,VALID,0,VALID,19.1987,VALID,158,VALID,0,
2012-10-19, 03:05:04,VALID,916.401,VALID,0,VALID,97.656,VALID,0,VALID,19.1987,VALID,158,VALID,0,
2012-10-19, 03:06:04,VALID,916.431,VALID,0,VALID,97.656,VALID,0,VALID,19.2182,VALID,158,VALID,0,
2012-10-19, 03:07:04,VALID,916.39,VALID,0,VALID,97.6407,VALID,0,VALID,19.2377,VALID,158,VALID,0,
2012-10-19, 03:08:04,VALID,916.374,VALID,0,VALID,97.656,VALID,0,VALID,19.2377,VALID,158,VALID,0,
2012-10-19, 03:09:04,VALID,916.399,VALID,0,VALID,97.6865,VALID,0,VALID,19.2377,VALID,158,VALID,0,
2012-10-19, 03:10:04,VALID,916.372,VALID,0,VALID,97.6483,VALID,0,VALID,19.2767,VALID,158,VALID,0,
2012-10-19, 03:11:04,VALID,916.362,VALID,0,VALID,97.656,VALID,0,VALID,19.2572,VALID,158,VALID,0,
2012-10-19, 03:12:04,VALID,916.387,VALID,0,VALID,97.6636,VALID,0,VALID,19.2767,VALID,158,VALID,0,
2012-10-19, 03:13:04,VALID,916.394,VALID,0,VALID,97.656,VALID,0,VALID,19.2962,VALID,158,VALID,0,
2012-10-19, 03:14:04,VALID,916.359,VALID,0,VALID,97.656,VALID,0,VALID,19.3157,VALID,158,VALID,0,
2012-10-19, 03:15:04,VALID,916.347,VALID,0,VALID,97.6712,VALID,0,VALID,19.3172,VALID,158,VALID,0,
2012-10-19, 03:16:04,VALID,916.341,VALID,0,VALID,97.6636,VALID,0,VALID,19.2962,VALID,158,VALID,0,
2012-10-19, 03:17:04,VALID,916.362,VALID,0,VALID,97.656,VALID,0,VALID,19.2962,VALID,158,VALID,0,
2012-10-19, 03:18:04,VALID,916.385,VALID,0,VALID,97.6712,VALID,0,VALID,19.3172,VALID,158,VALID,0,
2012-10-19, 03:19:04,VALID,916.338,VALID,0,VALID,97.656,VALID,0,VALID,19.2962,VALID,158,VALID,0,
2012-10-19, 03:20:04,VALID,916.348,VALID,0,VALID,97.656,VALID,0,VALID,19.2962,VALID,158,VALID,0,
2012-10-19, 03:21:04,VALID,916.326,VALID,0,VALID,97.6636,VALID,0,VALID,19.3157,VALID,158,VALID,0,
2012-10-19, 03:22:04,VALID,916.346,VALID,0,VALID,97.656,VALID,0,VALID,19.3157,VALID,158,VALID,0,
2012-10-19, 03:23:04,VALID,916.36,VALID,0,VALID,97.656,VALID,0,VALID,19.3172,VALID,158,VALID,0,
2012-10-19, 03:24:04,VALID,916.338,VALID,0,VALID,97.656,VALID,0,VALID,19.2977,VALID,158,VALID,0,
2012-10-19, 03:25:04,VALID,916.34,VALID,0,VALID,97.6483,VALID,0,VALID,19.2767,VALID,158,VALID,0,
2012-10-19, 03:26:04,VALID,916.342,VALID,0,VALID,97.6788,VALID,0,VALID,19.2767,VALID,158,VALID,0,
2012-10-19, 03:27:04,VALID,916.344,VALID,0,VALID,97.6712,VALID,0,VALID,19.2587,VALID,158,VALID,0,
2012-10-19, 03:28:04,VALID,916.333,VALID,0,VALID,97.656,VALID,0,VALID,19.2587,VALID,158,VALID,0,
2012-10-19, 03:29:04,VALID,916.321,VALID,0,VALID,97.6788,VALID,0,VALID,19.2377,VALID,158,VALID,0,
2012-10-19, 03:30:04,VALID,916.307,VALID,0,VALID,97.6712,VALID,0,VALID,19.2377,VALID,158,VALID,0,
2012-10-19, 03:31:04,VALID,916.319,VALID,0,VALID,97.6865,VALID,0,VALID,19.2377,VALID,158,VALID,0,
2012-10-19, 03:32:04,VALID,916.331,VALID,0,VALID,97.6788,VALID,0,VALID,19.2377,VALID,158,VALID,0,
2012-10-19, 03:33:04,VALID,916.346,VALID,0,VALID,97.6788,VALID,0,VALID,19.2377,VALID,158,VALID,0,
2012-10-19, 03:34:04,VALID,916.315,VALID,0,VALID,97.6712,VALID,0,VALID,19.2182,VALID,158,VALID,0,
2012-10-19, 03:35:04,VALID,916.322,VALID,0,VALID,97.6712,VALID,0,VALID,19.2182,VALID,158,VALID,0,
2012-10-19, 03:36:04,VALID,916.344,VALID,0,VALID,97.6788,VALID,0,VALID,19.2392,VALID,158,VALID,0,
2012-10-19, 03:37:04,VALID,916.323,VALID,0,VALID,97.6788,VALID,0,VALID,19.2377,VALID,158,VALID,0,
2012-10-19, 03:38:04,VALID,916.304,VALID,0,VALID,97.6865,VALID,0,VALID,19.2182,VALID,158,VALID,0,
2012-10-19, 03:39:04,VALID,916.347,VALID,0,VALID,97.6865,VALID,0,VALID,19.1987,VALID,158,VALID,0,
2012-10-19, 03:40:04,VALID,916.332,VALID,0,VALID,97.6712,VALID,0,VALID,19.1987,VALID,158,VALID,0,
2012-10-19, 03:41:04,VALID,916.319,VALID,0,VALID,97.7017,VALID,0,VALID,19.1987,VALID,158,VALID,0,
2012-10-19, 03:42:04,VALID,916.322,VALID,0,VALID,97.6636,VALID,0,VALID,19.1987,VALID,158,VALID,0,
2012-10-19, 03:43:04,VALID,916.314,VALID,0,VALID,97.6941,VALID,0,VALID,19.2182,VALID,158,VALID,0,
2012-10-19, 03:44:04,VALID,916.315,VALID,0,VALID,97.6712,VALID,0,VALID,19.1987,VALID,158,VALID,0,
2012-10-19, 03:45:04,VALID,916.316,VALID,0,VALID,97.6712,VALID,0,VALID,19.1987,VALID,158,VALID,0,
2012-10-19, 03:46:04,VALID,916.331,VALID,0,VALID,97.6712,VALID,0,VALID,19.1987,VALID,158,VALID,0,
2012-10-19, 03:47:04,VALID,916.322,VALID,0,VALID,97.6712,VALID,0,VALID,19.1987,VALID,158,VALID,0,
2012-10-19, 03:48:04,VALID,916.296,VALID,0,VALID,97.6941,VALID,0,VALID,19.1987,VALID,158,VALID,0,
2012-10-19, 03:49:04,VALID,916.32,VALID,0,VALID,97.6712,VALID,0,VALID,19.2002,VALID,158,VALID,0,
2012-10-19, 03:50:04,VALID,916.286,VALID,0,VALID,97.7017,VALID,0,VALID,19.1792,VALID,158,VALID,0,
2012-10-19, 03:51:04,VALID,916.297,VALID,0,VALID,97.7093,VALID,0,VALID,19.2182,VALID,158,VALID,0,
2012-10-19, 03:52:04,VALID,916.25,VALID,0,VALID,97.7017,VALID,0,VALID,19.2377,VALID,158,VALID,0,
2012-10-19, 03:53:04,VALID,916.257,VALID,0,VALID,97.6941,VALID,0,VALID,19.2182,VALID,158,VALID,0,
2012-10-19, 03:54:04,VALID,916.257,VALID,0,VALID,97.6865,VALID,0,VALID,19.2392,VALID,158,VALID,0,
2012-10-19, 03:55:04,VALID,916.275,VALID,0,VALID,97.6941,VALID,0,VALID,19.1987,VALID,158,VALID,0,
2012-10-19, 03:56:04,VALID,916.266,VALID,0,VALID,97.6941,VALID,0,VALID,19.1987,VALID,158,VALID,0,
2012-10-19, 03:57:04,VALID,916.255,VALID,0,VALID,97.6865,VALID,0,VALID,19.1987,VALID,158,VALID,0,
2012-10-19, 03:58:04,VALID,916.248,VALID,0,VALID,97.6865,VALID,0,VALID,19.1987,VALID,158,VALID,0,
2012-10-19, 03:59:04,VALID,916.268,VALID,0,VALID,97.6865,VALID,0,VALID,19.2182,VALID,158,VALID,0,